| time (UTC) | temp F | wind direction | speed MPH | gust MPH | rain 1hr in | rain 24hr in | rain mn in | humidity % | barometer mb |
| 20260509120035 | 70 | 0 | 0.0 | 2.0 | 0.00 | 0.00 | 0.00 | 86 | 1010.1 |
| 20260509114529 | 70 | 236 | 1.0 | 3.0 | 0.00 | 0.00 | 0.00 | 86 | 1009.8 |
| 20260509113027 | 70 | 257 | 1.0 | 3.0 | 0.00 | 0.00 | 0.00 | 86 | 1009.4 |
| 20260509104532 | 70 | 283 | 2.0 | 6.0 | 0.00 | 0.00 | 0.00 | 86 | 1008.8 |
| 20260509103035 | 70 | 238 | 0.0 | 3.0 | 0.00 | 0.00 | 0.00 | 86 | 1009.0 |
| 20260509101532 | 70 | 0 | 0.0 | 0.0 | 0.00 | 0.00 | 0.00 | 86 | 1008.9 |
| 20260509093031 | 70 | 0 | 0.0 | 7.0 | 0.00 | 0.00 | 0.00 | 85 | 1008.2 |
| 20260509091532 | 70 | 288 | 5.0 | 11.0 | 0.00 | 0.00 | 0.00 | 85 | 1007.3 |
| 20260509084536 | 70 | 274 | 5.0 | 11.0 | 0.00 | 0.00 | 0.00 | 84 | 1007.6 |
| 20260509083038 | 70 | 271 | 5.0 | 10.0 | 0.00 | 0.00 | 0.00 | 84 | 1008.2 |
| 20260509081530 | 70 | 306 | 4.0 | 10.0 | 0.00 | 0.00 | 0.00 | 84 | 1008.9 |
| 20260509080031 | 69 | 294 | 3.0 | 7.0 | 0.00 | 0.00 | 0.00 | 84 | 1009.6 |
| 20260509074530 | 69 | 264 | 1.0 | 3.0 | 0.00 | 0.00 | 0.00 | 84 | 1010.0 |
| 20260509073029 | 69 | 0 | 1.0 | 3.0 | 0.00 | 0.00 | 0.00 | 83 | 1010.6 |
| 20260509071528 | 69 | 0 | 0.0 | 1.0 | 0.00 | 0.00 | 0.00 | 83 | 1010.8 |
| 20260509070032 | 69 | 0 | 0.0 | 1.0 | 0.00 | 0.00 | 0.00 | 83 | 1010.6 |
| 20260509064528 | 69 | 313 | 0.0 | 3.0 | 0.00 | 0.00 | 0.00 | 83 | 1009.8 |
| 20260509063027 | 69 | 0 | 0.0 | 2.0 | 0.00 | 0.00 | 0.00 | 82 | 1010.0 |
| 20260509061533 | 70 | 291 | 2.0 | 4.0 | 0.00 | 0.00 | 0.00 | 81 | 1009.9 |
| 20260509060029 | 70 | 0 | 0.0 | 0.0 | 0.00 | 0.00 | 0.00 | 80 | 1010.6 |
| 20260509054531 | 71 | 0 | 0.0 | 3.0 | 0.00 | 0.00 | 0.00 | 80 | 1011.1 |
| 20260509053037 | 71 | 79 | 0.0 | 3.0 | 0.00 | 0.00 | 0.00 | 80 | 1010.9 |
| 20260509051529 | 71 | 127 | 1.0 | 5.0 | 0.00 | 0.00 | 0.00 | 79 | 1011.4 |
| 20260509050032 | 71 | 0 | 1.0 | 4.0 | 0.00 | 0.00 | 0.00 | 79 | 1010.2 |
| 20260509044529 | 71 | 0 | 0.0 | 7.0 | 0.00 | 0.00 | 0.00 | 78 | 1010.0 |
| 20260509043029 | 71 | 327 | 2.0 | 9.0 | 0.00 | 0.00 | 0.00 | 77 | 1009.5 |
| 20260509041539 | 72 | 275 | 4.0 | 8.0 | 0.00 | 0.00 | 0.00 | 76 | 1009.6 |
| 20260509040029 | 72 | 0 | 0.0 | 1.0 | 0.00 | 0.00 | 0.00 | 75 | 1010.9 |
| 20260509034529 | 72 | 0 | 0.0 | 3.0 | 0.00 | 0.00 | 0.00 | 76 | 1010.9 |
| 20260509033030 | 72 | 0 | 0.0 | 1.0 | 0.00 | 0.00 | 0.00 | 76 | 1010.6 |
| 20260509031532 | 72 | 0 | 0.0 | 3.0 | 0.00 | 0.00 | 0.00 | 76 | 1010.1 |
| 20260509030031 | 71 | 287 | 1.0 | 3.0 | 0.00 | 0.00 | 0.00 | 76 | 1010.2 |
| 20260509024530 | 71 | 315 | 0.0 | 4.0 | 0.00 | 0.00 | 0.00 | 76 | 1009.7 |
| 20260509023029 | 72 | 294 | 2.0 | 5.0 | 0.00 | 0.00 | 0.00 | 75 | 1009.2 |
| 20260509021529 | 72 | 286 | 2.0 | 4.0 | 0.00 | 0.00 | 0.00 | 75 | 1009.2 |
| 20260509020032 | 72 | 347 | 3.0 | 6.0 | 0.00 | 0.00 | 0.00 | 75 | 1009.1 |
| 20260509014527 | 72 | 311 | 1.0 | 2.0 | 0.00 | 0.00 | 0.00 | 74 | 1009.0 |
| 20260509013036 | 72 | 311 | 1.0 | 3.0 | 0.00 | 0.00 | 0.00 | 74 | 1008.8 |
| 20260509011530 | 72 | 0 | 1.0 | 3.0 | 0.00 | 0.00 | 0.00 | 73 | 1008.7 |
| 20260509010040 | 72 | 300 | 2.0 | 7.0 | 0.00 | 0.00 | 0.00 | 73 | 1008.5 |
| 20260509004530 | 72 | 333 | 3.0 | 8.0 | 0.00 | 0.00 | 0.00 | 72 | 1008.3 |
| 20260509003030 | 72 | 331 | 2.0 | 7.0 | 0.00 | 0.00 | 0.00 | 71 | 1008.3 |
| 20260509001529 | 73 | 338 | 3.0 | 8.0 | 0.00 | 0.00 | 0.00 | 71 | 1008.2 |
| 20260509000027 | 74 | 335 | 2.0 | 7.0 | 0.00 | 0.00 | 0.00 | 69 | 1008.5 |
| 20260508234528 | 73 | 329 | 3.0 | 7.0 | 0.00 | 0.00 | 0.00 | 68 | 1008.6 |
| 20260508233030 | 74 | 293 | 3.0 | 8.0 | 0.00 | 0.00 | 0.00 | 68 | 1008.7 |
| 20260508231530 | 74 | 268 | 2.0 | 9.0 | 0.00 | 0.00 | 0.00 | 68 | 1008.9 |
| 20260508230037 | 75 | 312 | 4.0 | 8.0 | 0.00 | 0.00 | 0.00 | 67 | 1008.9 |
| 20260508224537 | 76 | 297 | 4.0 | 10.0 | 0.00 | 0.00 | 0.00 | 66 | 1008.8 |
| 20260508223036 | 76 | 252 | 4.0 | 11.0 | 0.00 | 0.00 | 0.00 | 67 | 1008.8 |
| 20260508221542 | 76 | 338 | 4.0 | 12.0 | 0.00 | 0.00 | 0.00 | 66 | 1008.6 |
| 20260508220030 | 77 | 333 | 5.0 | 10.0 | 0.00 | 0.00 | 0.00 | 66 | 1008.6 |
| 20260508214530 | 77 | 360 | 4.0 | 10.0 | 0.00 | 0.00 | 0.00 | 64 | 1008.7 |
| 20260508213027 | 76 | 267 | 4.0 | 9.0 | 0.00 | 0.00 | 0.00 | 65 | 1008.6 |
| 20260508211530 | 74 | 263 | 3.0 | 8.0 | 0.00 | 0.00 | 0.00 | 68 | 1009.3 |
| 20260508210030 | 73 | 329 | 3.0 | 8.0 | 0.00 | 0.00 | 0.00 | 68 | 1010.0 |
| 20260508204533 | 74 | 323 | 2.0 | 9.0 | 0.00 | 0.00 | 0.00 | 67 | 1010.3 |
| 20260508203028 | 74 | 348 | 3.0 | 9.0 | 0.00 | 0.00 | 0.00 | 65 | 1010.6 |
| 20260508201531 | 75 | 351 | 5.0 | 10.0 | 0.00 | 0.00 | 0.00 | 63 | 1010.3 |
| 20260508200028 | 77 | 337 | 4.0 | 11.0 | 0.00 | 0.00 | 0.00 | 61 | 1010.5 |
| 20260508194528 | 76 | 325 | 5.0 | 10.0 | 0.00 | 0.00 | 0.00 | 62 | 1010.7 |
| 20260508193029 | 77 | 308 | 5.0 | 11.0 | 0.00 | 0.00 | 0.00 | 62 | 1010.8 |
| 20260508191530 | 76 | 284 | 5.0 | 11.0 | 0.00 | 0.00 | 0.00 | 62 | 1010.9 |
| 20260508190040 | 77 | 283 | 4.0 | 10.0 | 0.00 | 0.00 | 0.00 | 62 | 1011.0 |
| 20260508184534 | 77 | 334 | 5.0 | 11.0 | 0.00 | 0.00 | 0.00 | 61 | 1011.2 |
| 20260508183030 | 76 | 284 | 4.0 | 11.0 | 0.00 | 0.00 | 0.00 | 62 | 1011.4 |
| 20260508181529 | 75 | 338 | 3.0 | 9.0 | 0.00 | 0.00 | 0.00 | 60 | 1011.6 |
| 20260508180027 | 76 | 360 | 5.0 | 11.0 | 0.00 | 0.00 | 0.00 | 58 | 1012.0 |
| 20260508174536 | 75 | 349 | 4.0 | 10.0 | 0.00 | 0.00 | 0.00 | 61 | 1012.2 |
| 20260508173030 | 75 | 325 | 4.0 | 13.0 | 0.00 | 0.00 | 0.00 | 60 | 1012.4 |
| 20260508171528 | 74 | 332 | 4.0 | 11.0 | 0.00 | 0.00 | 0.00 | 61 | 1012.8 |
| 20260508170030 | 71 | 340 | 3.0 | 9.0 | 0.00 | 0.00 | 0.00 | 65 | 1013.3 |
| 20260508164534 | 71 | 315 | 3.0 | 10.0 | 0.00 | 0.00 | 0.00 | 65 | 1013.7 |
| 20260508163027 | 70 | 325 | 6.0 | 13.0 | 0.00 | 0.00 | 0.00 | 65 | 1013.8 |
| 20260508161528 | 70 | 324 | 5.0 | 10.0 | 0.00 | 0.00 | 0.00 | 65 | 1014.1 |
| 20260508160032 | 69 | 267 | 4.0 | 11.0 | 0.00 | 0.00 | 0.00 | 66 | 1014.2 |
| 20260508154532 | 69 | 266 | 4.0 | 9.0 | 0.00 | 0.00 | 0.00 | 68 | 1014.3 |
| 20260508153030 | 68 | 335 | 4.0 | 8.0 | 0.00 | 0.00 | 0.00 | 67 | 1014.5 |
| 20260508151531 | 68 | 333 | 2.0 | 8.0 | 0.00 | 0.00 | 0.00 | 66 | 1014.7 |
| 20260508150036 | 69 | 290 | 4.0 | 11.0 | 0.00 | 0.00 | 0.00 | 64 | 1014.4 |
| 20260508144527 | 68 | 295 | 3.0 | 9.0 | 0.00 | 0.00 | 0.00 | 67 | 1014.4 |
| 20260508143029 | 68 | 294 | 3.0 | 9.0 | 0.00 | 0.00 | 0.00 | 67 | 1014.6 |
| 20260508141528 | 67 | 286 | 5.0 | 11.0 | 0.00 | 0.00 | 0.00 | 67 | 1014.8 |
| 20260508140027 | 66 | 277 | 3.0 | 8.0 | 0.00 | 0.00 | 0.00 | 72 | 1014.7 |
| 20260508134529 | 65 | 255 | 4.0 | 7.0 | 0.00 | 0.00 | 0.00 | 74 | 1014.7 |
| 20260508133031 | 63 | 273 | 2.0 | 7.0 | 0.00 | 0.00 | 0.00 | 79 | 1014.7 |
| 20260508131528 | 62 | 324 | 0.0 | 3.0 | 0.00 | 0.00 | 0.00 | 82 | 1014.8 |
| 20260508130035 | 62 | 257 | 0.0 | 3.0 | 0.00 | 0.00 | 0.00 | 83 | 1014.9 |
| 20260508124530 | 61 | 0 | 0.0 | 2.0 | 0.00 | 0.00 | 0.00 | 83 | 1015.1 |
| 20260508123029 | 61 | 0 | 0.0 | 0.0 | 0.00 | 0.00 | 0.00 | 83 | 1014.9 |
| 20260508121529 | 61 | 0 | 0.0 | 0.0 | 0.00 | 0.00 | 0.00 | 83 | 1015.0 |